This demonstration page uses our WeatherBlox Daily Observations layout. Learn more.

Left ArrowRight Arrow

Hourly Observations for September 27, 2017

Temp ( °F °C ) Dew Point ( °F °C ) Humidity (%) Winds ( mph kmh ) Pressure ( in mb ) Visibility ( mi km ) Precip ( " mm )
12:51 am 00:51 undefined N/A N/A N/A undefined N/A N/A N/A N/A
1:51 am 01:51 Mostly Clear 60 15.6 22 -5.6 23 23 N N/A 29.76 1008 10 16 N/A
2:51 am 02:51 Clear 58 14.4 21 -6.1 24 24 E 9 15 29.77 1008 10 16 N/A
3:51 am 03:51 Mostly Cloudy 59 15 22 -5.6 24 24 SSE 5 7 29.78 1009 10 16 N/A
4:51 am 04:51 Partly Cloudy 61 16.1 31 -0.6 32 32 ESE 6 9 29.79 1009 10 16 N/A
5:51 am 05:51 Cloudy 62 16.7 42 5.6 48 48 ESE 5 7 29.82 1010 10 16 N/A
6:51 am 06:51 Cloudy 65 18.3 49 9.4 56 56 ESE 5 7 29.84 1011 10 16 N/A
7:51 am 07:51 Cloudy 69 20.6 52 11.1 55 55 VRB 5 7 29.86 1011 10 16 N/A
8:51 am 08:51 Cloudy 72 22.2 54 12.2 53 53 ESE 5 7 29.87 1011 10 16 N/A
9:51 am 09:51 Sunny 76 24.4 54 12.2 47 47 SE 8 13 29.84 1011 10 16 N/A
10:51 am 10:51 Sunny 79 26.1 53 11.7 41 41 SE 12 19 29.83 1010 10 16 N/A
11:51 am 11:51 Sunny 82 27.8 50 10 33 33 SE 14 22 29.74 1007 10 16 N/A
12:51 pm 12:51 Mostly Sunny 84 28.9 45 7.2 25 25 SSE 13 20 29.71 1006 10 16 N/A
1:51 pm 13:51 Partly Cloudy 83 28.3 48 8.9 30 30 SE 14 22 29.78 1008 10 16 N/A
2:51 pm 14:51 Sunny 85 29.4 45 7.2 25 25 SSE 10 17 29.76 1008 10 16 N/A
3:51 pm 15:51 Mostly Cloudy 82 27.8 45 7.2 27 27 S 5 7 29.75 1008 10 16 N/A
4:51 pm 16:51 Mostly Cloudy 82 27.8 47 8.3 29 29 S 3 6 29.75 1008 10 16 N/A
5:51 pm 17:51 Partly Cloudy 80 26.7 49 9.4 34 34 ESE 8 13 29.77 1008 10 16 N/A
6:34 pm 18:34 Partly Cloudy with Nearby Thunderstorms 79 26 52 11 39 39 ESE 7 11 29.74 1007 10 16 N/A
6:51 pm 18:51 Mostly Clear 77 25 52 11.1 42 42 E 8 13 29.79 1009 10 16 N/A
7:16 pm 19:16 Mostly Clear with Nearby Thunderstorms 75 24 52 11 44 44 ESE 7 11 29.74 1007 10 16 N/A
7:43 pm 19:43 Clear 75 23.9 52 11.1 45 45 E 7 11 29.80 1009 10 16 N/A
7:51 pm 19:51 Clear 74 23.3 51 10.6 45 45 E 6 9 29.81 1010 10 16 N/A
8:51 pm 20:51 Mostly Clear 73 22.8 52 11.1 48 48 SSE 5 7 29.83 1010 10 16 N/A
9:51 pm 21:51 Cloudy 74 23.3 52 11.1 46 46 SSE 3 6 29.84 1011 10 16 N/A
10:51 pm 22:51 Mostly Cloudy 74 23.3 53 11.7 48 48 E 9 15 29.84 1011 10 16 N/A
11:51 pm 23:51 Mostly Cloudy 72 22.2 56 13.3 57 57 ESE 8 13 29.84 1011 10 16 N/A

Powered by AerisWeather